SWA988 KSRQ-KBWI

Flight info

Callsign SWA988
Flight time N/A
Altitude 39000
Route TIDES1 CAMJO Q99 OGRAE GOOOB THHMP RAVNN8
Aircraft B737/M-SADE2E3GIJ4RWZ/LB1D1

Departure

Time 2026-04-21 14:35
Airport Sarasota Bradenton International Airport (KSRQ)

Arrival

Time N/A
Airport Baltimore/Washington International Thurgood Marshall Airport (KBWI)
Time Latitude Longitude Altitude Speed Heading
2026-04-21 14:08 27.39031 -82.55423 30 ft 0 kts 158°
2026-04-21 14:23 27.39042 -82.55428 29 ft 4 kts 158°
2026-04-21 14:23 27.39067 -82.55439 28 ft 3 kts 158°
2026-04-21 14:24 27.39088 -82.55452 29 ft 4 kts 123°
2026-04-21 14:24 27.39093 -82.55478 28 ft 4 kts 75°
2026-04-21 14:24 27.39090 -82.55490 28 ft 1 kts 71°
2026-04-21 14:28 27.39101 -82.55472 30 ft 6 kts 44°
2026-04-21 14:28 27.39157 -82.55463 30 ft 10 kts 12°
2026-04-21 14:29 27.39216 -82.55419 30 ft 11 kts 38°
2026-04-21 14:29 27.39291 -82.55402 29 ft 13 kts 330°
2026-04-21 14:29 27.39359 -82.55479 29 ft 15 kts 315°
2026-04-21 14:29 27.39433 -82.55562 28 ft 15 kts 314°
2026-04-21 14:30 27.39504 -82.55643 30 ft 14 kts 314°
2026-04-21 14:30 27.39570 -82.55721 29 ft 13 kts 313°
2026-04-21 14:30 27.39635 -82.55793 28 ft 13 kts 317°
2026-04-21 14:30 27.39698 -82.55864 29 ft 13 kts 314°
2026-04-21 14:31 27.39758 -82.55934 29 ft 12 kts 314°
2026-04-21 14:31 27.39817 -82.56002 29 ft 12 kts 314°
2026-04-21 14:31 27.39875 -82.56069 29 ft 12 kts 314°
2026-04-21 14:31 27.39930 -82.56132 29 ft 11 kts 314°
2026-04-21 14:32 27.39985 -82.56194 29 ft 11 kts 314°
2026-04-21 14:32 27.40038 -82.56255 29 ft 11 kts 314°
2026-04-21 14:32 27.40090 -82.56315 29 ft 10 kts 315°
2026-04-21 14:32 27.40140 -82.56372 30 ft 10 kts 314°
2026-04-21 14:33 27.40188 -82.56428 30 ft 10 kts 314°
2026-04-21 14:33 27.40236 -82.56482 30 ft 10 kts 315°
2026-04-21 14:33 27.40282 -82.56534 28 ft 9 kts 314°
2026-04-21 14:33 27.40331 -82.56590 29 ft 11 kts 315°
2026-04-21 14:34 27.40403 -82.56608 30 ft 12 kts 34°
2026-04-21 14:34 27.40437 -82.56536 30 ft 12 kts 118°
2026-04-21 14:34 27.40379 -82.56467 29 ft 15 kts 134°
2026-04-21 14:34 27.40219 -82.56283 28 ft 67 kts 135°
2026-04-21 14:35 27.39714 -82.55699 31 ft 137 kts 132°
2026-04-21 14:35 27.38979 -82.54841 401 ft 158 kts 127°
2026-04-21 14:35 27.38252 -82.53990 1294 ft 149 kts 129°
2026-04-21 14:35 27.37506 -82.53121 1852 ft 167 kts 128°
2026-04-21 14:36 27.36616 -82.52084 2146 ft 201 kts 128°
2026-04-21 14:36 27.35581 -82.50897 2700 ft 218 kts 129°
2026-04-21 14:36 27.34523 -82.49703 3686 ft 214 kts 129°
2026-04-21 14:36 27.33469 -82.48512 4457 ft 222 kts 129°
2026-04-21 14:37 27.32358 -82.47255 5016 ft 230 kts 130°
2026-04-21 14:37 27.31131 -82.46067 5785 ft 241 kts 149°
2026-04-21 14:37 27.29451 -82.45649 6476 ft 259 kts 185°
2026-04-21 14:37 27.27793 -82.46366 7316 ft 260 kts 220°
2026-04-21 14:38 27.26471 -82.47717 8335 ft 253 kts 229°
2026-04-21 14:38 27.25502 -82.49337 9273 ft 252 kts 255°
2026-04-21 14:38 27.25095 -82.51332 9715 ft 276 kts 264°
2026-04-21 14:38 27.24786 -82.53500 10495 ft 284 kts 263°
2026-04-21 14:39 27.24486 -82.55671 11415 ft 285 kts 268°
2026-04-21 14:39 27.24697 -82.57849 12337 ft 282 kts 291°
2026-04-21 14:39 27.25635 -82.59778 13211 ft 284 kts 310°
2026-04-21 14:39 27.26961 -82.61455 14078 ft 291 kts 313°
2026-04-21 14:40 27.28366 -82.63128 14893 ft 295 kts 314°
2026-04-21 14:40 27.29785 -82.64808 15793 ft 299 kts 313°
2026-04-21 14:40 27.31215 -82.66516 16664 ft 303 kts 313°